sat.trackr.live / text

‹ back to catalog

STARLINK-5741

NORAD 55582 · 2023-020P

PAYLOAD ACTIVE UNKNOWN

§ Identity

Operator
Country
US
Launch date
2023-02-12
Launch site
AFETR
Launch vehicle
Mass (kg)
RCS (m²)

Purposes: comms

External: N2YO · Heavens-Above · Gunter

§ Orbital elements

Epoch: 2026-09-20T15:12:28.979136Z

Period
94.27 min
Inclination
43.0049°
Eccentricity
0.0001252
Mean motion
15.27575374 rev/d
Perigee alt
482.2 km
Apogee alt
483.9 km
Semi-major
6,861.2 km
B*
-9.3763e-6
RAAN
333.2823°
Arg perigee
286.4983°
Mean anomaly
73.5731°
Rev number
19,885

§ Raw data

STARLINK-57411 55582U 23020P   26263.63366874 -.00000520  00000+0 -93763-5 0  99952 55582  43.0049 333.2823 0001252 286.4983  73.5731 15.27575374198854

JSON: /api/v1/satellites/55582 · /tle

For live sub-satellite position, see the globe view (requires WebGL).

§ Visibility from observer

Set your observer location to see the next 7 days of passes ≥ 10°. The values pass through the URL so the page stays shareable.

No JS? Fill the form by hand. The geolocation button needs JavaScript.